Anoka County, MN

7:33 PM CDT on June 28, 2017 (GMT -0500)
Anoka County / Blaine Airport

Weather History for KANE - May, 2014

Change the Weather History Date:

Sunday, May 18, 2014

  Actual Average Record
Temperature  
Mean Temperature 62 °F -  
Max Temperature 73 °F 64 °F 93 °F (2012)
Min Temperature 51 °F 44 °F 37 °F (2000)
Degree Days  
Heating Degree Days 3    
Growing Degree Days 12 (Base 50)    
Moisture  
Dew Point 35 °F    
Average Humidity 39    
Maximum Humidity 51    
Minimum Humidity 25    
Precipitation  
Precipitation 0.00 in - - ()
Sea Level Pressure  
Sea Level Pressure 30.02 in    
Wind  
Wind Speed 7 mph (SSW)    
Max Wind Speed 17 mph    
Max Gust Speed 28 mph    
Visibility 10 miles    
Events      
Averages and records for this station are not official NWS values.
T = Trace of Precipitation, MM = Missing Value Source: NWS Daily Summary

Daily Weather History Graph

Daily Weather History Graph

Search for Another Location

Airport or City:

Trip Planner

Search our weather history database for the weather conditions in past years. The results will help you decide how hot, cold, wet, or windy it might be!

Date:

Astronomy

May. 18, 2014 Rise Set
Actual Time 5:40 AM CDT 8:39 PM CDT
Civil Twilight 5:05 AM CDT 9:14 PM CDT
Nautical Twilight 4:20 AM CDT 9:58 PM CDT
Astronomical Twilight 3:28 AM CDT 10:52 PM CDT
Moon No Moon Rise 9:31 AM CDT (5/18)
Length of Visible Light 16h 08m
Length of Day
14h 59m
Waning Gibbous, 81% of the Moon is Illuminated
May 18
Waning Gibbous
May 21
Last Quarter
May 28
New
Jun 5
First Quarter
Jun 12
Full

Hourly Weather History & Observations

Time (CDT) Temp. Dew Point Humidity Pressure Visibility Wind Dir Wind Speed Gust Speed Precip Events Conditions
12:14 AM 57.2 °F 33.8 °F 41% 30.01 in 10.0 mi Calm Calm - N/A   Overcast
12:34 AM 57.2 °F 33.8 °F 41% 30.01 in 10.0 mi SW 4.6 mph - N/A   Overcast
12:54 AM 55.4 °F 35.6 °F 47% 30.01 in 10.0 mi SSW 3.5 mph - N/A   Mostly Cloudy
1:14 AM 55.4 °F 33.8 °F 44% 30.01 in 10.0 mi SSW 6.9 mph - N/A   Clear
1:35 AM 57.2 °F 32.0 °F 38% 30.01 in 10.0 mi SSW 5.8 mph - N/A   Clear
1:54 AM 55.4 °F 30.2 °F 38% 30.01 in 10.0 mi SSW 5.8 mph - N/A   Clear
2:14 AM 55.4 °F 30.2 °F 38% 30.01 in 10.0 mi SSW 5.8 mph - N/A   Clear
2:34 AM 55.4 °F 32.0 °F 41% 30.01 in 10.0 mi SSW 6.9 mph - N/A   Clear
2:54 AM 55.4 °F 32.0 °F 41% 30.01 in 10.0 mi SSW 8.1 mph - N/A   Clear
3:14 AM 55.4 °F 32.0 °F 41% 30.02 in 10.0 mi SSW 6.9 mph - N/A   Clear
3:34 AM 53.6 °F 33.8 °F 47% 30.02 in 10.0 mi SSW 6.9 mph - N/A   Clear
3:54 AM 53.6 °F 33.8 °F 47% 30.02 in 10.0 mi SSW 4.6 mph - N/A   Clear
4:14 AM 53.6 °F 33.8 °F 47% 30.03 in 10.0 mi SSW 5.8 mph - N/A   Clear
4:34 AM 53.6 °F 33.8 °F 47% 30.03 in 10.0 mi SW 4.6 mph - N/A   Clear
4:54 AM 51.8 °F 33.8 °F 50% 30.04 in 10.0 mi SSW 5.8 mph - N/A   Clear
5:14 AM 51.8 °F 33.8 °F 50% 30.04 in 10.0 mi SSW 5.8 mph - N/A   Clear
5:34 AM 51.8 °F 33.8 °F 50% 30.04 in 10.0 mi SSW 5.8 mph - N/A   Clear
5:54 AM 51.8 °F 33.8 °F 50% 30.05 in 10.0 mi SW 4.6 mph - N/A   Clear
6:14 AM 51.8 °F 33.8 °F 50% 30.05 in 10.0 mi SW 5.8 mph - N/A   Clear
6:34 AM 53.6 °F 35.6 °F 51% 30.06 in 10.0 mi SSW 6.9 mph - N/A   Clear
6:54 AM 53.6 °F 35.6 °F 51% 30.06 in 10.0 mi SSW 6.9 mph - N/A   Clear
7:45 AM 57.2 °F 37.4 °F 48% 30.06 in 10.0 mi WSW 9.2 mph - N/A   Partly Cloudy
8:59 AM 62.6 °F 37.4 °F 39% 30.07 in 10.0 mi WSW 10.4 mph 18.4 mph N/A   Clear
9:50 AM 66.2 °F 42.8 °F 43% 30.07 in 10.0 mi SSW 10.4 mph - N/A   Clear
10:45 AM 68.0 °F 41.0 °F 37% 30.07 in 10.0 mi SW 9.2 mph 18.4 mph N/A   Clear
12:50 PM 69.8 °F 33.8 °F 27% 30.05 in 10.0 mi SSW 16.1 mph 27.6 mph N/A   Scattered Clouds
1:45 PM 71.6 °F 33.8 °F 25% 30.04 in 10.0 mi South 17.3 mph 27.6 mph N/A   Scattered Clouds
2:45 PM 71.6 °F 35.6 °F 27% 30.02 in 10.0 mi South 17.3 mph 27.6 mph N/A   Scattered Clouds
3:45 PM 71.6 °F 35.6 °F 27% 30.01 in 10.0 mi South 17.3 mph 27.6 mph N/A   Mostly Cloudy
4:45 PM 73.4 °F 35.6 °F 25% 29.99 in 10.0 mi South 17.3 mph 25.3 mph N/A   Scattered Clouds
5:45 PM 71.6 °F 33.8 °F 25% 29.98 in 10.0 mi SSW 17.3 mph 23.0 mph N/A   Scattered Clouds
6:45 PM 71.6 °F 35.6 °F 27% 29.97 in 10.0 mi SSW 13.8 mph 20.7 mph N/A   Scattered Clouds
7:45 PM 69.8 °F 33.8 °F 27% 29.97 in 10.0 mi South 11.5 mph 19.6 mph N/A   Mostly Cloudy
8:45 PM 66.2 °F 35.6 °F 32% 29.97 in 10.0 mi South 9.2 mph - N/A   Mostly Cloudy
9:14 PM 64.4 °F 35.6 °F 34% 29.98 in 10.0 mi SSE 8.1 mph - N/A   Clear
9:34 PM 64.4 °F 35.6 °F 34% 29.99 in 10.0 mi SSE 9.2 mph - N/A   Clear
9:45 PM 64.4 °F 35.6 °F 34% 29.99 in 10.0 mi SSE 8.1 mph - N/A   Mostly Cloudy
9:54 PM 64.4 °F 35.6 °F 34% 29.99 in 10.0 mi SSE 8.1 mph - N/A   Clear
10:14 PM 64.4 °F 35.6 °F 34% 29.99 in 10.0 mi SSE 8.1 mph - N/A   Clear
10:34 PM 64.4 °F 35.6 °F 34% 30.00 in 10.0 mi SSE 10.4 mph - N/A   Clear
10:54 PM 62.6 °F 37.4 °F 39% 30.00 in 10.0 mi South 9.2 mph - N/A   Clear
11:14 PM 62.6 °F 35.6 °F 37% 30.00 in 10.0 mi South 11.5 mph - N/A   Clear
11:34 PM 62.6 °F 37.4 °F 39% 30.00 in 10.0 mi SSE 10.4 mph - N/A   Clear
11:54 PM 62.6 °F 37.4 °F 39% 30.00 in 10.0 mi SSE 10.4 mph - N/A   Clear